This demonstration page uses our WeatherBlox Daily Observations layout. Learn more.

41.55636, -103.73856

Hourly Observations for February 8, 2019

Temp ( °F °C ) Dew Point ( °F °C ) Humidity (%) Winds ( mph kmh ) Pressure ( in mb ) Visibility ( mi km ) Precip ( " mm )
12:58 am 00:58 Clear -3 -19.6 -8 -22.1 81 81 WNW 9 15 30.52 1034 10 16.0934 N/A
1:58 am 01:58 Clear -6 -20.9 -11 -23.9 77 77 W 8 13 30.56 1035 10 16.0934 N/A
2:58 am 02:58 Clear -1 -18.6 -6 -21.1 81 81 WSW 13 20 30.54 1034 10 16.0934 N/A
3:58 am 03:58 Clear -3 -19.5 -7 -21.9 81 81 NW 12 19 30.52 1034 10 16.0934 N/A
4:58 am 04:58 Clear 1 -17.3 -5 -20.4 77 77 WNW 8 13 30.52 1034 10 16.0934 N/A
5:58 am 05:58 Clear 6 -14.5 -1 -18.5 72 72 WNW 9 15 30.48 1032 10 16.0934 N/A
6:58 am 06:58 Clear 0 -17.9 -7 -21.5 74 74 SSW 10 17 30.52 1033 10 16.0934 N/A
7:58 am 07:58 Clear 1 -17 -7 -21.6 68 68 SW 14 22 30.52 1034 10 16.0934 N/A
8:58 am 08:58 Clear 3 -16.2 -6 -21 67 67 SW 9 15 30.53 1034 10 16.0934 N/A
9:58 am 09:58 Clear 6 -14.5 -3 -19.7 65 65 SW 17 28 30.49 1033 10 16.0934 N/A
10:58 am 10:58 Clear 5 -14.9 -4 -20 65 65 SW 20 31 30.47 1032 10 16.0934 N/A
11:58 am 11:58 Clear 5 -15.1 -3 -19.7 68 68 SSW 17 28 30.48 1032 10 16.0934 N/A
12:58 pm 12:58 Clear 7 -13.7 -2 -18.8 66 66 SW 17 28 30.49 1033 10 16.0934 N/A
1:58 pm 13:58 Clear 9 -12.9 -2 -18.8 62 62 SW 13 20 30.49 1033 10 16.0934 N/A
2:58 pm 14:58 Sunny 12 -11 0 -17.6 59 59 SSW 12 19 30.48 1032 10 16.0934 N/A
3:58 pm 15:58 Sunny 16 -8.8 4 -15.5 59 59 SSW 10 17 30.48 1032 10 16.0934 N/A
4:58 pm 16:58 Sunny 23 -5.1 3 -16 42 42 SSW 17 28 30.41 1030 10 16.0934 N/A
5:58 pm 17:58 Sunny 25 -4 4 -15.7 40 40 SSW 17 28 30.37 1029 10 16.0934 N/A
6:58 pm 18:58 Sunny 25 -4.1 4 -15.3 42 42 S 15 24 30.37 1029 10 16.0934 N/A
7:58 pm 19:58 Sunny 25 -3.8 9 -12.6 51 51 S 15 24 30.34 1027 10 16.0934 N/A
8:58 pm 20:58 Sunny 26 -3.4 10 -12.3 51 51 S 15 24 30.29 1026 10 16.0934 N/A
9:58 pm 21:58 Sunny 27 -2.7 13 -10.8 54 54 SSE 13 20 30.26 1025 10 16.0934 N/A
10:58 pm 22:58 Mostly Sunny 23 -4.8 13 -10.8 63 63 S 18 30 30.27 1025 10 16.0934 N/A

Powered by AerisWeather